DW2781 Weather Reports


Display with metric or nautical units.
time (UTC)temp
F
wind
direction
speed
MPH
gust
MPH
rain 1hr
in
rain 24hr
in
rain mn
in
humidity
%
barometer
mb
20260505230005 53 23 13.0 20.0 0.00 0.00 0.00 73 1009.5
20260505225505 53 22 13.0 20.0 0.00 0.00 0.00 72 1009.4
20260505225005 53 21 12.0 19.0 0.00 0.00 0.00 72 1009.5
20260505224526 53 22 11.0 18.0 0.00 0.00 0.00 72 1009.5
20260505224004 54 29 11.0 19.0 0.00 0.00 0.00 72 1009.5
20260505223526 54 29 11.0 19.0 0.00 0.00 0.00 73 1009.3
20260505223004 54 28 9.0 18.0 0.00 0.00 0.00 73 1009.5
20260505222504 54 34 10.0 22.0 0.00 0.00 0.00 72 1009.3
20260505222005 54 30 12.0 22.0 0.00 0.00 0.00 72 1009.3
20260505221504 54 26 11.0 20.0 0.00 0.00 0.00 72 1009.0
20260505221025 54 29 10.0 21.0 0.00 0.00 0.00 72 1009.0
20260505220505 54 30 11.0 21.0 0.00 0.00 0.00 72 1008.8
20260505220004 55 30 12.0 19.0 0.00 0.00 0.00 72 1009.0
20260505215505 55 28 11.0 19.0 0.00 0.00 0.00 71 1009.0
20260505215004 55 26 11.0 22.0 0.00 0.00 0.00 71 1008.9
20260505214505 55 30 13.0 23.0 0.00 0.00 0.00 71 1008.5
20260505214005 55 29 13.0 23.0 0.00 0.00 0.00 71 1008.2
20260505213504 55 27 13.0 22.0 0.00 0.00 0.00 71 1008.2
20260505213004 55 25 13.0 22.0 0.00 0.00 0.00 71 1008.2
20260505212505 55 20 15.0 24.0 0.00 0.00 0.00 72 1008.4
20260505212004 55 20 15.0 24.0 0.00 0.00 0.00 71 1008.4
20260505211505 55 23 13.0 22.0 0.00 0.00 0.00 72 1008.7
20260505211004 55 32 13.0 25.0 0.00 0.00 0.00 72 1008.1
20260505210505 55 31 14.0 25.0 0.00 0.00 0.00 72 1008.1
20260505210004 55 27 15.0 24.0 0.00 0.00 0.00 73 1008.0
20260505205505 55 22 15.0 23.0 0.00 0.00 0.00 73 1007.9
20260505205004 55 19 14.0 23.0 0.00 0.00 0.00 73 1008.3
20260505204504 55 24 11.0 23.0 0.00 0.00 0.00 73 1049.6
20260505204005 55 25 10.0 20.0 0.00 0.00 0.00 73 1009.4
20260505203505 55 25 13.0 23.0 0.00 0.00 0.00 72 1009.0
20260505203026 55 26 14.0 23.0 0.00 0.00 0.00 73 1008.6
20260505202505 55 24 15.0 25.0 0.00 0.00 0.00 73 1008.2
20260505202005 56 21 15.0 25.0 0.00 0.00 0.00 73 1008.3
20260505201505 56 19 15.0 24.0 0.00 0.00 0.00 73 1008.0
20260505201026 56 20 15.0 23.0 0.00 0.00 0.00 73 1008.0
20260505200526 56 22 16.0 22.0 0.00 0.00 0.00 74 1007.9
20260505200005 56 22 14.0 22.0 0.00 0.00 0.00 74 1008.1
20260505195505 56 19 15.0 26.0 0.00 0.00 0.00 75 1008.1
20260505195004 55 17 16.0 26.0 0.00 0.00 0.00 74 1007.9
20260505194504 55 16 15.0 25.0 0.00 0.00 0.00 74 1008.1
20260505194005 56 22 14.0 22.0 0.00 0.00 0.00 75 1008.1
20260505193504 55 21 14.0 21.0 0.00 0.00 0.00 76 1008.0
20260505193004 55 16 14.0 21.0 0.00 0.00 0.00 76 1007.9
20260505192504 55 14 14.0 26.0 0.00 0.00 0.00 76 1008.0
20260505192004 55 12 15.0 26.0 0.00 0.00 0.00 76 1008.0
20260505191504 55 12 15.0 25.0 0.00 0.00 0.00 77 1007.8
20260505191004 55 12 14.0 23.0 0.00 0.00 0.00 77 1007.7
20260505190504 55 17 14.0 23.0 0.00 0.00 0.00 77 1007.7
20260505190004 56 17 13.0 20.0 0.00 0.00 0.00 77 1007.9
20260505185504 56 15 13.0 20.0 0.00 0.00 0.00 77 1007.9
20260505185004 56 18 13.0 20.0 0.00 0.00 0.00 76 1007.7
20260505184504 57 22 12.0 19.0 0.00 0.00 0.00 77 1007.6
20260505184004 57 24 12.0 20.0 0.00 0.00 0.00 77 1007.5
20260505183504 57 21 14.0 22.0 0.00 0.00 0.00 77 1007.5
20260505183004 57 19 16.0 24.0 0.00 0.00 0.00 76 1007.6
20260505182504 57 17 15.0 24.0 0.00 0.00 0.00 76 1007.5
20260505182004 58 21 14.0 22.0 0.00 0.00 0.00 76 1007.4
20260505181505 58 27 14.0 23.0 0.00 0.00 0.00 76 1007.4
20260505181004 58 24 15.0 23.0 0.00 0.00 0.00 76 1007.1
20260505180504 58 27 13.0 23.0 0.00 0.00 0.00 76 1007.0
20260505180004 58 34 11.0 20.0 0.00 0.00 0.00 77 1007.0
20260505175504 58 38 11.0 20.0 0.00 0.00 0.00 77 1007.0
20260505175025 58 32 12.0 22.0 0.00 0.00 0.00 77 1006.9
20260505174504 58 26 14.0 22.0 0.00 0.00 0.00 77 1006.7
20260505174004 58 28 13.0 22.0 0.00 0.00 0.00 78 1006.7
20260505173504 58 28 12.0 22.0 0.00 0.00 0.00 78 1006.6
20260505173025 58 30 12.0 22.0 0.00 0.00 0.00 78 1006.5
20260505172505 57 31 12.0 22.0 0.00 0.00 0.00 78 1006.5
20260505172004 57 22 14.0 24.0 0.00 0.00 0.00 79 1006.6
20260505171505 57 19 16.0 24.0 0.00 0.00 0.00 78 1006.4
20260505171005 58 20 15.0 24.0 0.00 0.00 0.00 79 1006.2
20260505170504 57 23 15.0 24.0 0.00 0.00 0.00 79 1006.1
20260505170004 57 23 17.0 26.0 0.00 0.00 0.00 79 1006.1
20260505165504 58 25 14.0 26.0 0.00 0.00 0.00 79 1006.0
20260505165025 58 28 13.0 23.0 0.00 0.00 0.00 80 1006.0
20260505164505 57 25 15.0 26.0 0.00 0.00 0.00 80 1005.9
20260505164025 58 24 14.0 26.0 0.00 0.00 0.00 80 1005.8
20260505163504 58 21 17.0 28.0 0.00 0.00 0.00 81 1005.5
20260505163026 58 20 19.0 28.0 0.00 0.00 0.00 80 1005.4
20260505162525 58 22 16.0 27.0 0.00 0.00 0.00 80 1005.3
20260505162025 58 24 14.0 23.0 0.00 0.00 0.00 81 1005.1
20260505161505 58 21 16.0 27.0 0.00 0.00 0.00 80 1004.8
20260505161004 58 18 18.0 28.0 0.00 0.00 0.00 80 1004.7
20260505160504 58 15 18.0 28.0 0.00 0.00 0.00 80 1004.5
20260505153004 62 19 17.0 28.0 0.00 0.00 0.00 80 1003.7
20260505152504 62 19 16.0 23.0 0.00 0.00 0.00 80 1003.5
20260505152004 63 21 17.0 28.0 0.00 0.00 0.00 79 1003.3
20260505151504 63 20 17.0 28.0 0.00 0.00 0.00 78 1003.2
20260505151004 64 16 16.0 24.0 0.00 0.00 0.00 77 1003.0
20260505150504 65 8 15.0 25.0 0.00 0.00 0.00 77 1002.8
20260505140504 70 91 5.0 11.0 0.00 0.00 0.00 81 1001.2
20260505125004 69 78 1.0 5.0 0.00 0.00 0.00 79 1001.0
20260505124526 70 72 0.0 2.0 0.00 0.00 0.00 79 1000.9
20260505124004 70 67 1.0 4.0 0.00 0.00 0.00 78 1000.7
20260505123504 70 64 1.0 4.0 0.00 0.00 0.00 78 1000.8
20260505123025 70 65 0.0 4.0 0.00 0.00 0.00 77 1000.8
20260505122505 70 0 0.0 0.0 0.00 0.00 0.00 76 1000.7
20260505122004 70 0 0.0 0.0 0.00 0.00 0.00 76 1000.6
20260505121504 70 0 0.0 0.0 0.00 0.00 0.00 75 1000.5
20260505121004 70 0 0.0 0.0 0.00 0.00 0.00 75 1000.3
20260505120504 70 6 0.0 2.0 0.00 0.00 0.00 75 1000.4
20260505120005 70 335 1.0 5.0 0.00 0.00 0.00 75 1000.2
20260505115504 71 316 2.0 7.0 0.00 0.00 0.00 75 1000.3
20260505115004 71 315 3.0 7.0 0.00 0.00 0.00 75 1000.3
20260505114504 71 322 2.0 7.0 0.00 0.00 0.00 74 1000.2
20260505114004 71 328 1.0 8.0 0.00 0.00 0.00 74 999.9
20260505113504 71 324 3.0 10.0 0.00 0.00 0.00 74 999.7
20260505113005 71 223 6.0 14.0 0.00 0.00 0.00 74 999.6
20260505112504 71 191 4.0 14.0 0.00 0.00 0.00 74 999.1
20260505112004 72 203 1.0 7.0 0.00 0.00 0.00 73 999.0
20260505111525 72 213 1.0 5.0 0.00 0.00 0.00 74 999.1
20260505111004 72 220 3.0 13.0 0.00 0.00 0.00 74 999.0
20260505110525 72 215 4.0 13.0 0.00 0.00 0.00 74 999.0
20260505102025 72 195 10.0 22.0 0.00 0.00 0.00 74 998.1
20260505101504 72 195 9.0 22.0 0.00 0.00 0.00 74 998.1
20260505101004 72 191 10.0 20.0 0.00 0.00 0.00 74 998.0
20260505100504 72 192 11.0 20.0 0.00 0.00 0.00 74 998.1
20260505100025 72 191 10.0 19.0 0.00 0.00 0.00 74 997.9
20260505095504 72 193 10.0 19.0 0.00 0.00 0.00 74 997.8
20260505095004 72 191 9.0 17.0 0.00 0.00 0.00 74 997.9
20260505094504 72 192 8.0 19.0 0.00 0.00 0.00 74 997.9
20260505094004 72 192 9.0 23.0 0.00 0.00 0.00 74 998.0
20260505093503 72 187 10.0 23.0 0.00 0.00 0.00 74 998.0
20260505093004 72 187 10.0 22.0 0.00 0.00 0.00 74 998.0
20260505092503 72 191 9.0 22.0 0.00 0.00 0.00 74 997.8
20260505092024 72 190 10.0 18.0 0.00 0.00 0.00 74 997.8
20260505091503 72 186 11.0 19.0 0.00 0.00 0.00 74 997.8
20260505091004 72 193 0.0 23.0 0.00 0.00 0.00 74 997.9
20260505090503 72 192 11.0 23.0 0.00 0.00 0.00 74 998.1
20260505090025 72 187 11.0 23.0 0.00 0.00 0.00 74 998.0
20260505085504 73 189 12.0 23.0 0.00 0.00 0.00 74 998.2
20260505085004 73 191 10.0 20.0 0.00 0.00 0.00 74 998.2
20260505084504 73 189 10.0 20.0 0.00 0.00 0.00 74 998.3
20260505084004 73 188 11.0 20.0 0.00 0.00 0.00 74 998.2
20260505083503 73 189 12.0 24.0 0.00 0.00 0.00 74 998.2
20260505083004 73 187 13.0 24.0 0.00 0.00 0.00 74 998.4
20260505082524 73 186 12.0 24.0 0.00 0.00 0.00 74 998.4
20260505082004 73 188 11.0 24.0 0.00 0.00 0.00 74 998.5
20260505081504 73 190 11.0 19.0 0.00 0.00 0.00 74 998.6
20260505081025 73 188 12.0 23.0 0.00 0.00 0.00 74 998.6
20260505080503 73 189 13.0 23.0 0.00 0.00 0.00 74 998.5
20260505080024 73 191 12.0 25.0 0.00 0.00 0.00 74 998.5
20260505075504 73 190 12.0 25.0 0.00 0.00 0.00 74 998.6
20260505075004 73 190 13.0 24.0 0.00 0.00 0.00 74 998.6
20260505074503 73 189 12.0 24.0 0.00 0.00 0.00 74 998.8
20260505074004 73 189 11.0 22.0 0.00 0.00 0.00 74 998.7
20260505073504 73 186 12.0 29.0 0.00 0.00 0.00 74 998.8
20260505073025 73 185 13.0 29.0 0.00 0.00 0.00 74 999.0
20260505072504 73 189 11.0 26.0 0.00 0.00 0.00 74 998.9
20260505072004 73 190 11.0 26.0 0.00 0.00 0.00 74 999.1
20260505071504 73 191 11.0 25.0 0.00 0.00 0.00 74 999.1
20260505071004 73 191 11.0 25.0 0.00 0.00 0.00 74 999.2
20260505070504 73 187 11.0 22.0 0.00 0.00 0.00 73 999.2
20260505070025 73 188 10.0 22.0 0.00 0.00 0.00 73 999.3
20260505065504 73 189 10.0 26.0 0.00 0.00 0.00 73 999.4
20260505065003 73 185 11.0 26.0 0.00 0.00 0.00 73 999.4
20260505064504 73 183 12.0 26.0 0.00 0.00 0.00 73 999.4
20260505064004 73 184 13.0 26.0 0.00 0.00 0.00 73 999.4
20260505063504 73 184 13.0 23.0 0.00 0.00 0.00 73 999.6
20260505063025 73 182 12.0 25.0 0.00 0.00 0.00 73 999.5
20260505062504 73 181 12.0 25.0 0.00 0.00 0.00 73 999.5
20260505062025 73 180 12.0 23.0 0.00 0.00 0.00 73 999.7
20260505061504 73 181 12.0 23.0 0.00 0.00 0.00 72 999.7
20260505061004 73 182 12.0 26.0 0.00 0.00 0.00 72 999.6
20260505060503 73 180 11.0 26.0 0.00 0.00 0.00 72 999.8
20260505060004 73 181 11.0 22.0 0.00 0.00 0.00 72 999.9
20260505055504 73 180 12.0 23.0 0.00 0.00 0.00 72 1000.0
20260505055004 73 180 12.0 23.0 0.00 0.00 0.00 72 1000.0
20260505054504 73 182 12.0 25.0 0.00 0.00 0.00 72 1000.0
20260505054003 73 183 13.0 25.0 0.00 0.00 0.00 72 1000.0
20260505053503 73 183 12.0 25.0 0.00 0.00 0.00 72 1000.0
20260505053003 74 184 13.0 25.0 0.00 0.00 0.00 71 1000.0
20260505052504 74 183 14.0 28.0 0.00 0.00 0.00 71 1000.1
20260505052003 74 179 14.0 28.0 0.00 0.00 0.00 71 1000.1
20260505051504 74 176 15.0 29.0 0.00 0.00 0.00 71 1000.1
20260505051003 74 178 14.0 29.0 0.00 0.00 0.00 71 1000.1
20260505050504 74 181 13.0 24.0 0.00 0.00 0.00 71 1000.3
20260505041504 74 175 13.0 24.0 0.00 0.00 0.00 70 1000.7
20260505041004 74 175 12.0 24.0 0.00 0.00 0.00 70 1000.7
20260505040504 75 176 11.0 22.0 0.00 0.00 0.00 69 1000.8
20260505040005 75 176 12.0 25.0 0.00 0.00 0.00 69 1000.8
20260505035503 75 176 13.0 25.0 0.00 0.00 0.00 69 1000.8
20260505035004 75 179 12.0 24.0 0.00 0.00 0.00 69 1000.9
20260505034504 75 179 12.0 24.0 0.00 0.00 0.00 69 1000.8
20260505034004 75 174 13.0 25.0 0.00 0.00 0.00 69 1000.7
20260505033504 75 171 13.0 25.0 0.00 0.00 0.00 68 1000.7
20260505033003 75 171 13.0 28.0 0.00 0.00 0.00 68 1000.9
20260505032525 76 173 13.0 28.0 0.00 0.00 0.00 68 1000.6
20260505032025 76 173 14.0 30.0 0.00 0.00 0.00 68 1000.6
20260505031504 76 170 14.0 30.0 0.00 0.00 0.00 67 1000.6
20260505031004 76 169 12.0 22.0 0.00 0.00 0.00 67 1000.5
20260505030504 76 170 13.0 22.0 0.00 0.00 0.00 67 1000.4
20260505030004 76 171 13.0 28.0 0.00 0.00 0.00 67 1000.5
20260505025504 76 172 15.0 29.0 0.00 0.00 0.00 67 1000.5
20260505025025 76 173 14.0 29.0 0.00 0.00 0.00 66 1000.3
20260505024525 76 172 13.0 25.0 0.00 0.00 0.00 66 1000.1
20260505024004 76 172 14.0 28.0 0.00 0.00 0.00 66 999.9
20260505023504 76 172 15.0 28.0 0.00 0.00 0.00 65 1000.2
20260505023004 77 169 14.0 27.0 0.00 0.00 0.00 65 1000.3
20260505022504 77 167 13.0 27.0 0.00 0.00 0.00 65 1000.1
20260505022004 77 168 14.0 27.0 0.00 0.00 0.00 65 1000.1
20260505021504 77 169 16.0 30.0 0.00 0.00 0.00 64 999.9
20260505021004 77 167 15.0 30.0 0.00 0.00 0.00 64 999.8
20260505020504 77 166 14.0 30.0 0.00 0.00 0.00 63 999.9
20260505020004 78 170 15.0 30.0 0.00 0.00 0.00 63 999.9
20260505015504 78 168 15.0 30.0 0.00 0.00 0.00 63 1000.0
20260505015004 78 166 13.0 30.0 0.00 0.00 0.00 62 999.9
20260505014525 78 172 13.0 27.0 0.00 0.00 0.00 62 999.9
20260505014004 78 172 14.0 29.0 0.00 0.00 0.00 62 999.9
20260505013504 78 170 13.0 29.0 0.00 0.00 0.00 61 1000.0
20260505013025 78 170 14.0 27.0 0.00 0.00 0.00 61 1000.2
20260505012504 79 169 14.0 26.0 0.00 0.00 0.00 61 1000.0
20260505012004 79 169 12.0 26.0 0.00 0.00 0.00 61 1000.0
20260505011504 79 168 13.0 28.0 0.00 0.00 0.00 61 1000.1
20260505011004 79 174 14.0 28.0 0.00 0.00 0.00 60 1000.1
20260505010503 79 173 13.0 27.0 0.00 0.00 0.00 60 1000.3
20260505010003 80 171 14.0 35.0 0.00 0.00 0.00 59 1000.1
20260505005516 80 169 14.0 35.0 0.00 0.00 0.00 59 1000.3
20260505005016 80 166 14.0 24.0 0.00 0.00 0.00 58 1000.3
20260505004516 80 166 14.0 24.0 0.00 0.00 0.00 58 1000.2
20260505004016 80 166 13.0 24.0 0.00 0.00 0.00 57 1000.3
20260505003517 81 163 12.0 23.0 0.00 0.00 0.00 57 1000.5
20260505003038 82 163 12.0 29.0 0.00 0.00 0.00 56 1000.4
20260505002516 82 167 13.0 29.0 0.00 0.00 0.00 55 1000.5
20260505002016 82 167 12.0 26.0 0.00 0.00 0.00 55 1000.5
20260505001537 82 168 14.0 28.0 0.00 0.00 0.00 55 1000.6
20260505001016 82 171 16.0 28.0 0.00 0.00 0.00 54 1000.6
20260505000516 83 176 14.0 27.0 0.00 0.00 0.00 54 1000.6
20260505000016 83 175 13.0 24.0 0.00 0.00 0.00 53 1000.8
20260504235516 84 175 12.0 27.0 0.00 0.00 0.00 53 1000.7
20260504235016 84 175 13.0 27.0 0.00 0.00 0.00 53 1000.7
20260504234516 84 172 13.0 25.0 0.00 0.00 0.00 53 1000.7
20260504234016 84 167 13.0 25.0 0.00 0.00 0.00 52 1000.9
20260504233516 84 168 13.0 24.0 0.00 0.00 0.00 52 1000.9
20260504233016 84 167 12.0 24.0 0.00 0.00 0.00 53 1001.0
20260504232516 84 164 11.0 24.0 0.00 0.00 0.00 53 1001.1
20260504232016 84 172 12.0 24.0 0.00 0.00 0.00 52 1001.1
20260504231537 84 173 11.0 24.0 0.00 0.00 0.00 52 1001.1
20260504231016 84 169 12.0 24.0 0.00 0.00 0.00 53 1001.2
20260504230516 84 169 13.0 24.0 0.00 0.00 0.00 53 1001.3